Home   Weather   Wetzlar   Past weeks

Flag for Germany Past Weather in Wetzlar, Hesse, Germany — Yesterday and Last 2 Weeks

45 °F

Passing clouds.

Feels Like: 41 °F
Forecast: 39 / 53 °F
Wind: 6 mph from North

Location: Hessen

Current Time: Oct 25, 2016 at 9:15:25 PM

Latest Report: Oct 25, 2016 at 8:50 PM

Visibility: 5 mi

Pressure: 30.27 "Hg

Humidity: 100%

Dew Point: 45 °F

Location of WetzlarLocation

Past Weather in Wetzlar — Graph


Wetzlar Temperature Yesterday

Maximum temperature yesterday: 48 °F (at 7:50 PM)
Minimum temperature yesterday: 41 °F (at 7:50 AM)
Average temperature yesterday: 45 °F

High & Low Weather Summary for the Past Weeks

High59 °F (Oct 16, 2:50 PM)100% (Oct 10, 7:20 PM)30.27 "Hg (Oct 10, 7:20 PM)
Low37 °F (Oct 11, 7:50 AM)59% (Oct 16, 3:50 PM)29.68 "Hg (Oct 14, 7:50 PM)
Average44 °F95%29.99 "Hg
* Reported Oct 10 7:20 PM — Oct 25 7:50 PM, Wetzlar, Weather by CustomWeather, © 2016

Note: Actual official high and low records may vary slightly from our data, if they occured in-between our weather recording intervals... More about our weather records


Wetzlar Weather History for the Previous 24 Hours

Scroll right to see more
Time TempWeatherWind HumidityBarometerVisibility
7:50 PM
Tue, Oct 25
45 °FPartly cloudy.3 mph100%30.27 "Hg4 mi
7:20 PM45 °FPartly cloudy.6 mph100%30.24 "Hg4 mi
6:50 PM45 °FPartly cloudy.7 mph100%30.24 "Hg4 mi
6:20 PM45 °FFog.6 mph100%30.24 "Hg2 mi
5:50 PM45 °FFog.5 mph100%30.21 "Hg2 mi
5:20 PM45 °FFog.5 mph100%30.21 "Hg3 mi
4:50 PM45 °FFog.7 mph100%30.21 "Hg3 mi
4:20 PM45 °FDrizzle. Fog.8 mph100%30.21 "Hg2 mi
3:50 PM46 °FDrizzle. Fog.8 mph100%30.18 "Hg1 mi
3:20 PM46 °FDrizzle. Fog.8 mph100%30.18 "Hg1 mi
2:50 PM45 °FDrizzle. Fog.9 mph100%30.18 "Hg1 mi
2:20 PM45 °FFog.9 mph100%30.18 "Hg1 mi
1:50 PM46 °FDrizzle. Fog.10 mph100%30.18 "Hg0 mi
1:20 PM46 °FDrizzle. Fog.10 mph100%30.18 "Hg0 mi
12:50 PM48 °FCool.9 mph100%30.18 "Hg2 mi
12:20 PM48 °FFog.7 mph100%30.15 "Hg2 mi
11:50 AM46 °FFog.7 mph100%30.15 "Hg1 mi
11:20 AM46 °FFog.8 mph100%30.15 "Hg1 mi
10:50 AM46 °FDrizzle. Fog.9 mph100%30.15 "Hg1 mi
10:20 AM46 °FCool.9 mph100%30.15 "Hg2 mi
9:50 AM46 °FDrizzle. Fog.9 mph100%30.12 "Hg1 mi
9:20 AM46 °FFog.9 mph100%30.12 "Hg1 mi
8:50 AM46 °FDrizzle. Fog.13 mph100%30.12 "Hg1 mi
8:20 AM46 °FDrizzle. Fog.9 mph100%30.09 "Hg0 mi
7:50 AM48 °FDrizzle. Fog.10 mph100%30.09 "Hg0 mi
Weather by CustomWeather, © 2016

See weather overviewHow to use our weather pages